Location: Emory University Observatory
(33.7903°N, 84.3267°W)
Time: 03:13:44
(UTC-04:00)

ISS - Visible Passes

Search period start: 21 July 2018 00:00
Search period end: 31 July 2018 00:00
Orbit: 402 x 408 km, 51.6° (Epoch: 21 July)

Date Brightness Start Highest point End Pass type
(mag) Time Alt. Az. Time Alt. Az. Time Alt. Az.
21 Jul -2.2 04:49:22 10° NNW 04:52:27 36° NE 04:55:31 10° ESE visible
21 Jul -3.7 21:26:13 10° SW 21:29:28 80° NW 21:32:45 10° NE visible
21 Jul -0.2 23:05:41 10° NW 23:06:26 11° NNW 23:07:10 10° NNW visible
22 Jul -1.1 03:57:39 10° NNW 04:00:10 20° NE 04:02:42 10° E visible
22 Jul -3.2 05:33:42 10° WNW 05:36:43 33° SW 05:39:42 10° SSE visible
22 Jul -0.6 22:11:48 10° WNW 22:14:01 17° NNW 22:16:14 10° N visible
23 Jul -1.5 21:18:48 10° W 21:21:41 29° NW 21:24:35 10° NNE visible
25 Jul -0.7 21:12:12 10° WNW 21:14:02 14° NNW 21:15:52 10° N visible
